User: anonymous   Login
Location: Croydon
(51.3762°N, 0.0982°W)
Time: 20:39:49
(UTC+01:00)
Language:

VELOX 1 - Orbit

View from above orbital plane
View from above orbital plane
View from above satellite
View from above satellite

Ground track
Ground track

The orbit data is extracted from the following two-line orbital elements,

1 40057U 14034E   19295.42132570  .00000291  00000-0  48185-4 0  9990
2 40057  98.2510  61.3344 0010614 185.2218 174.8886 14.77728569286333
Epoch (UTC): 22 October 2019 10:06:42
Eccentricity: 0.0010614
inclination: 98.2510°
perigee height: 629 km
apogee height: 644 km
right ascension of ascending node: 61.3344°
argument of perigee: 185.2218°
revolutions per day: 14.77728569
mean anomaly at epoch: 174.8886°
orbit number at epoch: 28633

The dashed part of the orbit path shows where the satellite is in the earth's shadow,  

DLR